Tracking 19164 objects as of 21-May-2018
HD Live streaming from Space Station
objects crossing your sky now

BEESAT 4

Track BEESAT 4 now!
10-day predictions
BEESAT 4 is classified as:


NORAD ID: 41619
Int'l Code: 2016-040W
Perigee: 499.4 km
Apogee: 514.1 km
Inclination: 97.4 °
Period: 94.6 minutes
Semi major axis: 6877 km
RCS: Unknown
Launch date: June 22, 2016
Source: Germany (GER)
Launch site: SRIHARIKOTA (SRI)
Uplink (MHz):
Downlink (MHz): 435.950
Beacon (MHz): 435.950
Mode: 4800bps GMSK CW
Call sign: DP0BEH
Status: Active

aabbcc
Your satellite tracking list
Your tracking list is empty




NASA's NSSDC Master Catalog

Two Line Element Set (TLE):
1 41619U 16040W   18140.91786433 +.00001240 +00000-0 +57233-4 0  9998
2 41619 097.4168 204.4396 0010688 333.7918 026.2776 15.22051401093949
Source of the keplerian elements: AFSPC